Voltar ao catálogo

STARLINK-37279

AtivoComunicaçõesSSO
NORAD 68768·PAYLOAD·🇺🇸 United States

Lançado Apr 19, 2026 de Vandenberg Space Force Base

Loading…

Próximas Passagens (próximas 24 horas)

TLE

AtualizadoSource: CelesTrak SupGP

Época: Sep 15, 2026, 03:06 UTC

1 68768C 26086C   26258.12965278 -.00036220  00000+0 -11244-2 0  2586
2 68768  97.2840 293.5844 0001147  97.0027  83.2596 15.33455535    13

Acompanhe STARLINK-37279 em tempo real com AllMySat

Download on the App Store